Location: B�di�
(14.6834°N, 3.1047°W)
Time: 02:30:35
(UTC+00:00)

Cosmos 1420 Rocket - Pass Details

Date: 24 January 2020
Orbit: 754 x 782 km, 74.0° (Epoch: 19 February)

Event Time Altitude Azimuth Distance (km) Brightness Sun altitude
Rises 20:04:04 0° 195° (SSW) 3,193 7.6 -27.9°
Reaches altitude 10° 20:06:25 10° 196° (SSW) 2,269 6.8 -28.5°
Enters shadow 20:10:26 55° 207° (SSW) 898 4.4 -29.4°
